| time (UTC) | temp F | wind direction | speed MPH | gust MPH | rain 1hr in | rain 24hr in | rain mn in | humidity % | barometer mb |
| 20260904065801 | 63 | 270 | 0.0 | 0.0 | 0.12 | 1.66 | 0.31 | 93 | 1001.6 |
| 20260904055801 | 64 | 270 | 0.0 | 0.0 | 0.12 | 1.54 | 0.18 | 92 | 1002.5 |
| 20260904045802 | 65 | 270 | 0.0 | 0.0 | 0.03 | 1.42 | 0.05 | 91 | 1002.8 |
| 20260904035801 | 65 | 247 | 0.0 | 0.0 | 0.00 | 1.39 | 0.02 | 92 | 1003.3 |
| 20260904025802 | 64 | 225 | 0.0 | 0.0 | 0.00 | 1.39 | 0.02 | 93 | 1004.5 |
| 20260904015802 | 64 | 202 | 0.0 | 0.0 | 0.02 | 1.39 | 0.02 | 92 | 1005.7 |
| 20260904005801 | 64 | 225 | 0.0 | 0.0 | 0.00 | 1.37 | 0.00 | 87 | 1006.8 |
| 20260903235801 | 64 | 202 | 0.0 | 0.0 | 0.00 | 1.37 | 0.01 | 84 | 1007.8 |
| 20260903225801 | 64 | 225 | 0.0 | 0.0 | 0.00 | 1.37 | 0.01 | 84 | 1008.4 |
| 20260903215801 | 64 | 292 | 0.0 | 0.0 | 0.00 | 1.37 | 0.01 | 86 | 1008.5 |
| 20260903205801 | 65 | 292 | 0.0 | 0.0 | 0.00 | 1.37 | 0.01 | 82 | 1008.9 |
| 20260903195802 | 65 | 315 | 0.0 | 0.0 | 0.00 | 1.37 | 0.01 | 79 | 1009.2 |
| 20260903185801 | 65 | 247 | 0.0 | 0.0 | 0.00 | 1.37 | 0.01 | 82 | 1009.2 |
| 20260903175802 | 66 | 247 | 0.0 | 0.0 | 0.00 | 1.37 | 0.01 | 81 | 1009.2 |
| 20260903165802 | 66 | 292 | 0.0 | 0.0 | 0.00 | 1.37 | 0.01 | 82 | 1008.7 |
| 20260903155801 | 65 | 247 | 0.0 | 0.0 | 0.00 | 1.37 | 0.01 | 86 | 1008.5 |
| 20260903145802 | 67 | 292 | 0.0 | 0.0 | 0.00 | 1.37 | 0.01 | 82 | 1008.1 |
| 20260903135801 | 68 | 292 | 0.0 | 0.0 | 0.00 | 1.37 | 0.01 | 82 | 1008.0 |
| 20260903125802 | 69 | 292 | 0.0 | 0.0 | 0.00 | 1.37 | 0.01 | 81 | 1008.0 |
| 20260903115802 | 68 | 292 | 0.0 | 0.0 | 0.00 | 1.37 | 0.01 | 82 | 1007.6 |
| 20260903105802 | 68 | 337 | 0.0 | 0.0 | 0.00 | 1.37 | 0.01 | 85 | 1007.3 |
| 20260903095802 | 67 | 315 | 0.0 | 0.0 | 0.00 | 1.37 | 0.01 | 85 | 1007.1 |
| 20260903085802 | 66 | 292 | 0.0 | 0.0 | 0.00 | 1.37 | 0.01 | 87 | 1007.3 |
| 20260903075802 | 64 | 270 | 0.0 | 0.0 | 0.00 | 1.37 | 0.01 | 87 | 1007.0 |